TimeCST,TemperatureF,Dew PointF,Humidity,Sea Level PressureIn,VisibilityMPH,Wind Direction,Wind SpeedMPH,Gust SpeedMPH,PrecipitationIn,Events,Conditions,WindDirDegrees,DateUTC
12:53 AM,33.1,28.0,82,29.79,10.0,WNW,11.5,17.3,N/A,,Overcast,290,2013-02-27 06:53:00
1:53 AM,33.1,28.0,82,29.80,10.0,WNW,11.5,-,N/A,,Overcast,290,2013-02-27 07:53:00
2:02 AM,33.8,26.6,75,29.78,10.0,West,15.0,19.6,N/A,,Overcast,280,2013-02-27 08:02:00
2:53 AM,32.0,28.0,85,29.81,10.0,WNW,8.1,17.3,N/A,,Overcast,300,2013-02-27 08:53:00
3:28 AM,33.8,26.6,75,29.79,10.0,WNW,10.4,18.4,N/A,,Overcast,290,2013-02-27 09:28:00
3:53 AM,32.0,27.0,82,29.81,10.0,WNW,10.4,-,N/A,,Overcast,300,2013-02-27 09:53:00
4:53 AM,33.1,25.0,72,29.84,10.0,West,12.7,18.4,N/A,,Overcast,280,2013-02-27 10:53:00
5:53 AM,32.0,26.1,79,29.85,10.0,West,9.2,-,N/A,,Overcast,270,2013-02-27 11:53:00
6:53 AM,32.0,26.1,79,29.86,10.0,West,10.4,-,N/A,,Overcast,280,2013-02-27 12:53:00
7:53 AM,33.1,26.1,75,29.87,10.0,West,15.0,19.6,0.01,,Overcast,270,2013-02-27 13:53:00
8:53 AM,33.1,26.1,75,29.88,10.0,West,9.2,-,N/A,,Overcast,270,2013-02-27 14:53:00
9:31 AM,33.8,26.6,75,29.86,8.0,West,12.7,20.7,N/A,,Overcast,280,2013-02-27 15:31:00
9:53 AM,33.1,26.1,75,29.90,8.0,West,12.7,18.4,N/A,,Overcast,280,2013-02-27 15:53:00
10:53 AM,33.1,27.0,78,29.92,4.0,WNW,9.2,20.7,0.00,Snow,Light Snow,290,2013-02-27 16:53:00
11:29 AM,33.8,26.6,75,29.89,6.0,West,15.0,21.9,0.00,,Haze,280,2013-02-27 17:29:00
11:53 AM,34.0,27.0,75,29.91,6.0,West,12.7,19.6,0.00,,Haze,270,2013-02-27 17:53:00
12:53 PM,35.1,27.0,72,29.90,6.0,West,12.7,23.0,N/A,,Haze,270,2013-02-27 18:53:00
1:53 PM,36.0,27.0,70,29.90,9.0,West,10.4,23.0,0.00,,Overcast,280,2013-02-27 19:53:00
2:53 PM,36.0,27.0,70,29.91,9.0,West,18.4,23.0,N/A,,Overcast,280,2013-02-27 20:53:00
3:53 PM,35.1,26.1,70,29.92,8.0,West,17.3,24.2,N/A,,Overcast,280,2013-02-27 21:53:00
4:53 PM,34.0,25.0,70,29.94,8.0,West,12.7,25.3,N/A,,Overcast,270,2013-02-27 22:53:00
5:53 PM,33.1,24.1,70,29.96,9.0,West,10.4,21.9,N/A,,Overcast,280,2013-02-27 23:53:00
6:53 PM,33.1,24.1,70,29.98,10.0,WNW,15.0,20.7,N/A,,Overcast,290,2013-02-28 00:53:00
7:53 PM,32.0,24.1,73,29.98,10.0,West,11.5,19.6,N/A,,Overcast,280,2013-02-28 01:53:00
8:53 PM,32.0,24.1,73,29.99,10.0,WNW,10.4,-,N/A,,Overcast,290,2013-02-28 02:53:00
9:53 PM,32.0,24.1,73,29.99,10.0,WNW,10.4,18.4,N/A,,Overcast,290,2013-02-28 03:53:00
10:03 PM,32.0,24.8,75,29.96,10.0,WNW,10.4,19.6,N/A,,Overcast,300,2013-02-28 04:03:00
10:13 PM,32.0,24.8,75,29.96,10.0,WNW,12.7,19.6,N/A,,Overcast,290,2013-02-28 04:13:00
10:53 PM,32.0,24.1,73,29.99,10.0,WNW,16.1,27.6,N/A,,Overcast,300,2013-02-28 04:53:00
11:53 PM,32.0,21.9,66,29.98,10.0,WNW,10.4,17.3,N/A,,Overcast,300,2013-02-28 05:53:00